Location: *
(51.0333°S, 178.4667°E)
Time: 23:49:36
(UTC+00:00)

Meteor 2-9 Rocket - Pass Details

Date: 15 November 2019
Orbit: 792 x 894 km, 81.3° (Epoch: 11 December)

Event Time Altitude Azimuth Distance (km) Brightness Sun altitude
Exits shadow 11:29:14 39° 1° (N) 1,317 4.7 -20.3°
Maximum altitude 11:31:33 79° 80° (E) 910 4.2 -20.4°
Drops below altitude 10° 11:37:20 10° 165° (SSE) 2,535 7.7 -20.4°
Sets 11:39:45 0° 166° (SSE) 3,463 8.7 -20.4°
